Regional Weather Roundup
Issued by NWS

Home | Current Version | Previous Version | Graphics & Text | Print | Product List | Glossary On
Versions: 1 2 3 4 5 6 7 8 9 10 11 12 13 14 15 16 17 18 19 20 21 22 23 24 25 26 27 28 29 30 31 32 33 34 35 36 37 38 39 40 41 42 43 44 45 46 47 48 49 50
000
ASUS43 KLOT 292304
RWRIL

ILLINOIS REGIONAL WEATHER ROUNDUP
NATIONAL WEATHER SERVICE CHICAGO/ROMEOVILLE IL
600 PM CDT MON AUG 29 2016

NOTE: "FAIR" INDICATES FEW OR NO CLOUDS BELOW 12,000 FEET WITH NO
SIGNIFICANT WEATHER AND/OR OBSTRUCTIONS TO VISIBILITY.

* THESE STATIONS ARE NOT UNDER NWS QUALITY CONTROL. THEY ALSO MAY NOT
  REPORT WEATHER SUCH AS PRECIPITATION OR FOG.

ILZ001-002-007-009-015-016-024-300000-
NORTHWEST ILLINOIS

CITY           SKY/WX    TMP DP  RH WIND       PRES   REMARKS
MOLINE         PTSUNNY   81  72  74 NE6       30.16S HX  85
STERLING*      LGT RAIN  73  71  93 CALM      30.18F
SAVANNA*       LGT RAIN  76  72  88 NE3       30.18R
$$

ILZ003-004-008-010-011-017-018-300000-
NORTH CENTRAL ILLINOIS

CITY           SKY/WX    TMP DP  RH WIND       PRES   REMARKS
ROCKFORD       TSTM      73  70  90 E12       30.23R FOG
FREEPORT*      CLOUDY    70  69  97 CALM      30.21F
ROCHELLE*      LGT RAIN  73  70  92 CALM      30.22R
$$

ILZ005-006-012>014-019>023-300000-
NORTHEAST ILLINOIS

CITY           SKY/WX    TMP DP  RH WIND       PRES   REMARKS
CHICAGO-OHARE  CLOUDY    76  72  87 N3        30.18S
CHICAGO-MIDWAY CLOUDY    80  71  74 CALM      30.18S HX  84
AURORA         LGT RAIN  75  71  87 W3        30.20R FOG
LANSING*       CLOUDY    81  74  80 NE6       30.18R HX  86
JOLIET*        LGT RAIN  77  74  91 N3        30.17F
WAUKEGAN       CLOUDY    75  71  87 NE3       30.19S
DUPAGE AIRPORT CLOUDY    76  71  85 N3        30.20R
KANKAKEE*      MOSUNNY   85  73  67 CALM      30.17S HX  91
WHEELING       CLOUDY    76  72  87 CALM      30.20R
MORRIS*        CLOUDY    78  73  84 CALM      30.17R
ROMEOVILLE*    LGT RAIN  74  74 100 NE3       30.18F
$$

LMZ740>746-300000-
SOUTHERN LAKE MICHIGAN

STATION/POSITION SKY/WX   TEMP    WIND        PRES    VSBY  WAVE
                          AIR SEA DIR/SP/G                  HT/PER
                          (F)     (DEG/KT/KT) (MB)    (MI)  (FT/S)
SOUTHERN BUOY              77 80   50/  4/  6 1021.7          1
WILMETTE HARBOR            74 75  350/  4/  6   N/A           1/ 2
HARRISON CRIB              76      CALM  /  1   N/A
BURNHAM HARBOR             75      30/  5/  8   N/A
CALUMET HARBOR             77                   N/A
BURNS HARBOR               75      70/ 13/ 14 1022.0F
MICHIGAN CITY              75      40/ 12/ 13   N/A
MICHIGAN CITY 6N           76 76   80/  8/ 12   N/A           1/ 2
ST. JOSEPH                 76 76   30/  8/ 10 1021.6F         1
$$

ILZ025>027-034>036-040-047-049-050-058-095>099-300000-
WEST-CENTRAL ILLINOIS

CITY           SKY/WX    TMP DP  RH WIND       PRES   REMARKS
QUINCY         CLOUDY    84  73  69 CALM      30.13F HX  90
GALESBURG*     CLOUDY    75  70  84 N5        30.17S
MACOMB*        MOSUNNY   82  72  71 NE6       30.17S HX  86
JACKSONVILLE*  MOSUNNY   85  75  71 CALM      30.13R HX  94
PITTSFIELD*    CLOUDY    86  74  68 N3        30.13F HX  94
$$

ILZ028>032-037-038-041>044-048-051>054-059>061-300000-
CENTRAL ILLINOIS

CITY           SKY/WX    TMP DP  RH WIND       PRES   REMARKS
PONTIAC        PTSUNNY   86  78  76 CALM      30.17S HX  98
BLOOMINGTON    MOSUNNY   85  73  67 E8        30.17S HX  91
DECATUR        SUNNY     88  73  61 E7        30.15R HX  95
PEORIA         PTSUNNY   85  74  69 SE5       30.15R HX  92
LACON*         CLOUDY    76  72  86 NE5       30.14F
LINCOLN*       MOSUNNY   88  75  64 E6        30.15R HX  98
SPRINGFIELD    CLOUDY    89  73  59 E7        30.14R HX  97
TAYLORVILLE    SUNNY     87  73  64 E6        30.13S HX  94
$$

ILZ033-039-045-046-055>057-062-063-300000-
EAST-CENTRAL ILLINOIS

CITY           SKY/WX    TMP DP  RH WIND       PRES   REMARKS
CHAMPAIGN      SUNNY     85  73  67 E5        30.15F HX  91
RANTOUL*       SUNNY     88  75  65 E5        30.16S HX  97
MATTOON        SUNNY     86  72  62 E5        30.14S HX  92
PARIS*         SUNNY     86  75  70 CALM      30.15S HX  95
$$

ILZ079-100>102-300000-
SOUTHWEST ILLINOIS

CITY           SKY/WX    TMP DP  RH WIND       PRES   REMARKS
ALTON          MOSUNNY   88  73  62 E5        30.11S HX  96
BELLEVILLE     SUNNY     90  73  57 SE7       30.08F HX  98
CAHOKIA*       SUNNY     91  73  55 SE7       30.09S HX  99
SPARTA*        SUNNY     87  75  66 E5        30.11S HX  96
$$

ILZ064>066-069>071-074>076-080>082-084>086-088>090-092>094-300000-
SOUTH-CENTRAL ILLINOIS

CITY           SKY/WX    TMP DP  RH WIND       PRES   REMARKS
CARBONDALE     SUNNY     87  74  64 NE6       30.09F HX  95
EFFINGHAM*     SUNNY     86  75  68 NE5       30.14F HX  95
MARION         SUNNY     90  72  55 NE6       30.10F HX  96
MT. VERNON     SUNNY     90  70  51 E5        30.11F HX  95
CENTRALIA*     SUNNY     87  78  74 E5        30.11S HX 100
SALEM*         SUNNY     88  74  63 NE5       30.12S HX  96
METROPOLIS*    SUNNY     90  74  58 NE3       30.08F HX  99
$$

ILZ067-068-072-073-078-083-087-091-300000-
SOUTHEAST ILLINOIS

CITY           SKY/WX    TMP DP  RH WIND       PRES   REMARKS
LAWRENCEVILLE  SUNNY     89  72  56 NE6       30.12F HX  96
FLORA*         SUNNY     89  73  58 E3        30.12S HX  97
FAIRFIELD*     SUNNY     87  73  63 NE5       30.10F HX  93
HARRISBURG*    SUNNY     89  74  61 NE5       30.09F HX  98
ROBINSON*      SUNNY     85  75  72 NE3       30.14S HX  92
CARMI*         SUNNY     87  74  64 NE6       30.10S HX  95
$$

ABBREVIATIONS USED IN REMARKS
   TC - TEMPERATURE IN CELSIUS
  WCI - WIND CHILL INDEX
   HX - HEAT INDEX
  VSB - VISIBILITY
$$





USA.gov is the U.S. government's official web portal to all federal, state and local government web resources and services.